[Date Prev][Date Next][Thread Prev][Thread Next][Date Index][Thread Index]

[jamsat-news:1237] jas2info #176



========================   最新情報   ==============================

        Last updated :Sat.11-Mar.-2000 16:05 (JST) #176

====================================================================
   
  1)アマチュア通信衛星情報 FOシリーズの軌道要素、テレメトリ、
   QSOの状況等をまとめてみました.
   
   FO−29の3月11日(土)のテレメトリはJARLのホームページの
  運用予定のとうり10:10(JST)頃よりディジタル系運用から
  アナログ系運用に切り替わりました.
  CW信号で10:08〜10:19(JST)に受信できました.
  現在まで、当局で取得したデータの1部を掲載しておきます.
    
 AS17604C1  11Mar2000
 13:37-13:47(JST)

 HI HI AE C7 88 55 02 2C FF 0D 00 2E 4B 50 82 60 94 92 A0 8B BA B6 B9 BA B8 
 HI HI AE C7 88 55 07 2C FF 1A 00 2E 6F 48 8B 42 96 92 B0 74 BA B6 B8 BA B8 
 HI HI AE C7 88 55 0C 2C FF 0D 00 2E 5A 3E 8E 40 96 92 B0 8D BA B6 B8 BA B8 
 HI HI AE C7 88 55 11 2C FF 0D 00 2E 5A 48 84 60 94 93 B0 89 BA B6 B8 B9 B8 
 HI HI AE C7 88 55 16 2C FF 0D 00 2E 5F 43 8B 60 92 90 9E 8F B9 B6 B8 B9 B8 
 HI HI AE C7 88 55 1C 2C FF 0D 00 2E 5F 3A 80 60 92 90 B0 8C B9 B6 B8 B9 B8 
 HI HI AE C7 88 55 01 2C FF 0D 00 2E 4D 4B 9C 60 93 90 B0 8D B9 B5 B8 B9 B8 
 HS HI AE C7 88 55 03 2C FF 0D 00 2E 86 26 77 60 92 90 B0 8E B8 B5 B7 B8 B8 
 HI HI AE C7 88 55 06 2C FF 0D 00 2E 27 66 90 60 92 90 B0 A2 B8 B5 B7 B7 B8 
 HI HI AE C7 88 55 0B 2C FF 1E 00 2E 92 48 8E 5F 92 90 B0 B8 B8 B5 B7 B7 B8 
 HI HI AE 07 88 55 10 2C FF 0D 00 2E 3E 47 86 60 93 91 B0 6D B8 B5 B7 B7 B8 

 AS17602P-C  11Mar2000
 10:08-10:19 (JST)

 03/11/00 10:07:08
 cmd:8J1JCS>BEACON [03/11/00  10:08:57]:
 95 02 00 09 00 00 A8 40 00 00
 9B 43 D8 28 35 9D A0 83 8D 88
 00 00 00 AB 80 B3 F7 00 00 00                                     
 8J1JCS>BEACON [03/11/00  10:08:58]:
 User not connect.
                                                                                                             
 8J1JCS>BEACON [03/11/00  10:08:59]:
 Total    2 File(s) No.  Date  
 UTC    To    From   Size   
 Subject0002 03/10 07:
 55 ALL    K7XQ        
 69 0001 03/07 08:52 ALL
 8J1JCS>BEACON [03/11/00  10:09:00]:
    K7XQ        29 Hello from K7XQ

 MODE  cwe:K(ディジタル系からアナログ運用への切り替え)

 HI HI AE C7 88 55 0E 2C 05 0D 00 2E 6E 3D 82 60 93 91 B0 AC B9 B8 B7 B8 B9 
 HI HI AE C7 88 55 13 2C FF 0D 00 2E 6E 3A 88 60 93 91 B0 80 B9 B8 B7 B8 B8 
 HI HI AE C7 88 55 18 2C FF 0D 00 2E 83 42 87 60 93 91 B0 8D B9 B7 B7 B8 B9 
 HI HI AE C7 88 55 1D 2C FF 25 00 2E 52 3C 8C 60 94 91 B0 93 B9 B7 B6 B8 B8 
 HI HI AE C7 88 55 03 2C 0A 0D 00 2E 98 4A 8C 60 92 90 B0 7A B9 B7 B6 B8 B8 
 HI HI AE C7 88 55 08 2C FF 1A 00 2E 46 3C 8A 60 92 90 B0 7E B9 B7 B6 B8 B8 
 HI HI AE C7 88 55 0D 2C FF 0D 00 2E 8B 5E 91 60 93 91 B0 85 B9 B7 B6 B7 B9 
 HI HI AE C7 88 55 12 2C FF 0D 00 2E 63 3F 88 60 92 90 B1 8C B8 B6 B6 B7 B8 
 HI HI AE 07 88 I5 18 2C FF 0D 00 2E 5D 61 8F 60 93 91 B0 98 B8 B6 B6 B7 B8 
 HI HI AE C7 88 55 1D 2C FF 0D 00 2E 95 4A 8C 60 92 90 B0 73 B8 B6 B6 B7 B8 
 HI HI AE C7 88 55 07 2C FF 0D 00 2E AD 68 92 60 93 91 B0 9D B8 B5 B6 B7 B8 

------------------------- FO-29の軌道要素 ------------------------------        
 
  ■ 軌道要素1:「jamsat−keps:974」より              
            SB KEPS @ AMSAT  $ORB00070.N
                  2Line Orbital Elements 00070.AMSAT

 HR AMSAT ORBITAL ELEMENTS FOR AMATEUR SATELLITES IN NASA FORMAT
 FROM WA5QGD FORT WORTH,TX March 10, 2000
 SEND SUBSCRIBE/UNSUBSCRIBE TO majordomo@amsat.org ONLY
 BID: ORB00070.N

  DECODE 2-LINE ELSETS WITH THE FOLLOWING KEY:
  1 AAAAAU 00  0  0 BBBBB.BBBBBBBB  .CCCCCCCC  00000-0  00000-0 0  DDDZ
  2 AAAAA EEE.EEEE FFF.FFFF GGGGGGG HHH.HHHH III.IIII JJ.JJJJJJJJKKKKKZ
  KEY: A-CATALOGNUM B-EPOCHTIME C-DECAY D-ELSETNUM E-INCLINATION F-RAAN
  G-ECCENTRICITY H-ARGPERIGEE I-MNANOM J-MNMOTION K-ORBITNUM Z-CHECKSUM

  TO ALL RADIO AMATEURS BT

 FO-29
 1 24278U 96046B   00069.19393826  .00000021  00000-0  54614-4 0 03265
 2 24278 098.5900 350.1696 0351873 125.6226 237.8231 13.52701788175772
  
 ■ 軌道要素2:「jamsat−keps:974」より                         
         SB KEPS @ AMSAT  $ORB00070.O
             Orbital Elements  00070.OSCAR

 HR AMSAT ORBITAL ELEMENTS FOR OSCAR SATELLITES
 FROM WA5QGD FORT WORTH,TX March 10, 2000
 SEND SUBSCRIBE/UNSUBSCRIBE TO majordomo@amsat.org ONLY
 BID: ORB00070.O
 TO ALL RADIO AMATEURS BT

  Satellite: FO-29
 Catalog number: 24278
 Epoch time:      00069.19393826
 Element set:    0326
 Inclination:      098.5900 deg
 RA of node:       350.1696 deg
 Eccentricity:    0.0351873
 Arg of perigee:   125.6226 deg
 Mean anomaly:     237.8231 deg
 Mean motion:   13.52701788 rev/day
 Decay rate:        2.1e-07 rev/day^2
 Epoch rev:           17577
 Checksum:              322
-------------------  FO-29(JAS-2)のテレメトリに関する情報  ----------------------
 
 2)上記の3月11日(土)の13:37(JST)のパスのディジタル・テレメトリの
  最後の行の分析結果です.

  AS17604C1  11Mar2000
  13:37-13:47(JST)
 
 HI HI AE 07 88 55 10 2C FF 0D 00 2E 3E 47 86 60 93 91 B0 6D B8 B5 B7 B7 B8  

 テレメトリ	内   容		換算値	単 位
 
 3C	磁気センサーZ軸=	30392.1	[nT]
 3D	磁気センサX軸	=	34803.9	[nT]
 4A	太陽電池発生電流=	 1313.7	[mA]
 4B	B充放電電流	=	 -118.4	[mA]
 4C	B端子電圧	=	   15.8	[V]
 4D	B中間端子電圧	=	    7.0	[V]
 5A	バス電圧 	=	   17.3	[V]
 5B	JTA送信電力	=	  610.4	[mW]
 5C 	構体温度1	=	   10.4	[℃]
 5D	構体温度2	=	   11.6	[℃]
 6A	構体温度3	=	   10.8	[℃]
 6B	構体温度4	=	   10.8	[℃]
 6C	Bセル温度	=	   10.4	[℃]
  
   * OSはWindows 2000,Office 2000 にて計算処理.

--------------------------  FO−29のテレメトリ情報 -------------------------
 
 3)[jamsat-bb:5132]にJE9PEL/Mineo Wakita氏が投稿されていましたので
   転載させて頂きました.

 8J1JCS>BEACON [03/06/00  04:03:28] <UI C>:
 JAS-2    '97/03/06 04:03:25
 9C 03 63 08 00 2A 00 00 00 00
 00 00 2A 4C 82 8E 60 92 90 B0
 AA 52 AA 01 E5 B6 B7 B6 B4 B5

 8J1JCS>BEACON [03/06/00  04:03:29] <UI C>:
 D5 02 00 09 00 00 68 40 00 00
 DB B4 FC 66 38 96 99 83 85 85
 00 00 00 A7 7F B3 F7 00 00 00
 ..........................................

 The above data were the digital data that I received
 from FO-29(JAS-2) at today, 04:03:28UTC 6th March 2000,
 435.910MHz(+/- doppler)USB with a communication program.
 I noticed that the current year was incorrectly.
 And I analyzed these all data with 'fo29tlme.exe'.
 Please refer the more information in the below URL.

 Main Relay        ON    :  DCM               ON
 SRAM              ON    :  Packet            1200bps
 JTA               OFF   :  JTD               ON
 GAS               ON    :  SAS               ON
 UVC               ON    :  UVC Level         2
 PCU Mode          AUTO  :  PCU Level         1
 Battery Mode      TRIC  :  Battery Logic     TRIC
 Data Collect Mode ---   :  Data Replay Mode  ---
 Packet Mode       ---   :  Packet Mode       DATA
 Digitalker Mode   OFF   :  Digital Tx        ---
 CW Telemetry      OFF   :  
 Spin Period                 5869.5 [msec]
 Sun Angle                     63.5 [deg]
 Solar Current               1392.2 [mA]
 Battery Current             -118.4 [mA]
 Battery Voltage               15.7 [V]
 Battery Middle Voltage         6.9 [V]
 Bus Voltage                   17.3 [V]
 +5V Stabilizer Voltage         5.1 [V]
 -5V Stabilizer Voltage        -4.9 [V]
 +10V Stabilizer Voltage       10.2 [V]
 Analog  Tx Power             -91.6 [mW]
 Digital Tx Power            1724.6 [mW]
 Battery Cell Temp.            11.2 [C]
 Structure Temp. 1             10.8 [C]
 Structure Temp. 2             11.2 [C]
 Structure Temp. 3             12.0 [C]
 Structure Temp. 4             11.6 [C]
 GAS-X                     123529.4 [nT]
 GAS-Z                      50000.0 [nT]
 Solar Panel Temp. 1           17.9 [C]
 Solar Panel Temp. 2           17.9 [C]
 Solar Panel Temp. 3            4.3 [C]
 Digital Tx Temp.              17.0 [C]
 ----------------------------------------------
 Name : JE9PEL/Mineo Wakita, Member of JAMSAT
 Mail : je9pel@jamsat.or.jp
 URL  : http://www.ne.jp/asahi/hamradio/je9pel/
 QTH  : Yokohama Japan, GL:PM95TJ
 Date : Mar 6, 2000
 ----------------------------------------------
 ==================================================================================

  4)JARL のホームページに運用予定が記載されていましたのでご紹介します.
       ( http://www.jarl.or.jp/Japanese/3_Fuji/new/uy.htm )

        ■ ふじ3号/FOー29/JAS-2 ■  
   
     *** 運用予定について ***
    
  03月11日 〜 03月20日 アナログ系運用 
   03月21日 〜 03月24日 デジタル系1200bpsメールボックス運用 
   03月25日 〜 04月02日 アナログ系運用   

 *なお,運用予定は都合により変更することがありますのでご了承願います。

 照会先 : lab@jarl.or.jp

 最新の情報はテレホンサービス(03−3942−1000)をお聞きください。  
 以後の運用につきましては3月下旬にお知らせいたします。

-----------------------    FO−20(JAS-1b)道要素   -------------------------
  5)
  ■ 軌道要素1 :出典はFO-29「ふじ3号」に同じ.
  
  FO-20
 1 20480U 90013C   00068.88388609  .00000014  00000-0  11374-3 0 02347
 2 20480 099.0356 218.1409 0539976 282.4930 071.6295 12.83264524472415
 
  ■ 軌道要素2 :出典はFO−29「ふじ3号」に同じ.
               
 Satellite: FO-20
 Catalog number: 20480
 Epoch time:      00068.88388609
 Element set:    0234
 Inclination:      099.0356 deg
 RA of node:       218.1409 deg
 Eccentricity:    0.0539976
 Arg of perigee:   282.4930 deg
 Mean anomaly:     071.6295 deg
 Mean motion:   12.83264524 rev/day
 Decay rate:        1.4e-07 rev/day^2
 Epoch rev:           47241
 Checksum:              314

 --------------  FO-20(JAS-1b)のテレメトリとQSOに関する情報  ------------------
 
 6)2月12日(土)の15:12(JST)のパスでは前回観測のような唸りはありませんでしたが
   単一正弦波状の音がテレメトリとして観測されました。しかしアナログQSOは正常で活発に
   行われておりました。

 --------------------------------------------------------------------------------
 7)         ■ ふじ2号/FO−20/JAS-1b ■      
            
          「ふじ2号」 現況                                                                                  
             
   JAS-1b(ふじ2号)のCWテレメトリ信号に,1997年10月12日12時(JST)の
 日本上空通過時,3桁の数字が繰り返されるはずが3個の長音の繰り返しとなっているという
 異常が発見されました。この不具合は次の通過時からは回復していましたが13日15時20分の
 通過時に再び観測されました。現在はA0の送信が続いています。衛星のアナログ系中継モード
 動作は異常が無く,正常時のテレメトリ内容からは衛星の動作に異常は認められません。従って,
 直ちに衛星のミッションに影響することは無いと予想されますので,当面はアナログ系中継
 モードを継続します。衛星は既に打ち上げてから7年8ヶ月を経ておりますので,今後は監視を
 強化する予定です。アマチュア各位のレポートをお待ちします。
 -------------------------------------------------------------------------------- 
  1997年10月14日 00時35分 確認のテレメトリ音 151 KB (A0) 
  1997年10月14日 11時10分 確認のテレメトリ音 216 KB (異常キーイング) 

  以上 JARLのホ−ムページの http://www.jarl.or.jp/Japanese/3_Fuji/new/fuji.htm
                                           
   =============   JAS-2 (ふじ3号)と現在までの情報   ===========
  
  A.電話によるふじ3号の運用情報
      社団法人日本アマチュア連盟によるサービス
           TEL .   03− 3942 − 1000
  B.アマチュア無線FAXサービス
      JARLによるふじ3号の軌道情報(オービットカレンダー)
         FAX No.  03− 3233 −0055
  C.WWWブラウザで情報を簡単に見れる人のためにJAS−2
     ふじ3号の衛星としての運用されるまでの名前)の概要、打ち上げ
     までの状況、運用中における状況を説明したホームページを紹介し
     ておきます.
     社団法人日本アマチュア無線連盟(JARL)のホームページ

          http://www.jarl.or.jp/Japanese/3_Fuji/jasmenu.htm
 
     宇宙開発事業団(NASDA)ホームページ 
          http://www.nasda.go.jp/
         打上げ衛星 :地球観測プラットフォーム技術衛星(ADEOS) 
                       アマチュア衛星3号(JAS-2)
          http://yyy.tksc.nasda.go.jp/Home/Press/Press-j/jas-2_j.html        

  D.JAMSATによる軌道情報の活用
        JAMSATのホームページまたはjamsat−kepsの軌道要素より
      衛星の軌道情報を得る.
     JAMSATホームページ
               URL    http://www.jamsat.or.jp
       上記ホームページでは各地で行われるアマチュア通信衛星に関する
      ミューティングのお知らせや世界のアマチュア衛星に関する情報が
      満載されています.
 ========================================================================  
     JAMSATのメンバーのご協力によりJH6MME(高山 秀造)が
    執筆・編集を担当しております.ご指摘の意見、疑問やこのようにしたら
    というアイデアがありましたら小さなことでもかまいませんので気軽に下
    記アドレスまでご連絡ください.jamsat−newsからjas2
    infoへの転載をJH4PHW局坂井さんに担当して頂いております.  
                  E-mail : jh6mme@jamsat.or.jp : jh4phw@jamsat.or.jp
 ===============================   END  ===============================